Time,TemperatureF,DewpointF,PressureIn,WindDirection,WindDirectionDegrees,WindSpeedMPH,WindSpeedGustMPH,Humidity,HourlyPrecipIn,Conditions,Clouds,dailyrainin,SolarRadiationWatts/m^2,SoftwareType,DateUTC
2013-02-23 00:00:00,73.2,72.3,29.85,SE,135,2.3,2.3,97,0.00,CLR,,0.14,0.0,WeatherDisplay:10.37,2013-02-22 14:00:00,
2013-02-23 00:05:00,73.6,73.3,29.85,SE,135,3.5,3.5,99,0.00,CLR,,0.14,0.0,WeatherDisplay:10.37,2013-02-22 14:05:00,
2013-02-23 00:10:00,73.6,73.3,29.85,SE,135,3.5,3.5,99,0.00,CLR,,0.14,0.0,WeatherDisplay:10.37,2013-02-22 14:10:00,
2013-02-23 00:15:00,73.8,73.5,29.84,SE,135,3.5,3.5,99,0.00,CLR,,0.14,0.0,WeatherDisplay:10.37,2013-02-22 14:15:00,
2013-02-23 00:20:00,73.6,73.3,29.84,SE,135,4.6,4.6,99,0.00,CLR,,0.14,0.0,WeatherDisplay:10.37,2013-02-22 14:20:00,
2013-02-23 00:25:00,73.4,73.1,29.84,South,180,3.5,3.5,99,0.00,CLR,,0.14,0.0,WeatherDisplay:10.37,2013-02-22 14:25:00,
2013-02-23 00:30:00,73.4,73.1,29.83,SE,135,3.5,3.5,99,0.00,CLR,,0.14,0.0,WeatherDisplay:10.37,2013-02-22 14:30:00,
2013-02-23 00:35:00,73.4,73.1,29.83,SW,225,3.5,3.5,99,0.00,CLR,,0.14,0.0,WeatherDisplay:10.37,2013-02-22 14:35:00,
2013-02-23 00:40:00,73.4,73.1,29.83,East,90,4.6,4.6,99,0.00,CLR,,0.14,0.0,WeatherDisplay:10.37,2013-02-22 14:40:00,
2013-02-23 00:45:00,73.2,72.3,29.83,SE,135,4.6,4.6,97,0.00,CLR,,0.14,0.0,WeatherDisplay:10.37,2013-02-22 14:45:00,
2013-02-23 00:50:00,73.2,72.3,29.83,SE,135,4.6,4.6,97,0.00,CLR,,0.14,0.0,WeatherDisplay:10.37,2013-02-22 14:50:00,
2013-02-23 00:55:00,73.0,72.1,29.83,SE,135,5.8,5.8,97,0.00,CLR,,0.14,0.0,WeatherDisplay:10.37,2013-02-22 14:55:00,
2013-02-23 01:00:00,73.0,72.1,29.83,East,90,5.8,5.8,97,0.00,CLR,,0.14,0.0,WeatherDisplay:10.37,2013-02-22 15:00:00,
2013-02-23 01:05:00,72.9,72.0,29.83,SE,135,3.5,3.5,97,0.00,CLR,,0.14,0.0,WeatherDisplay:10.37,2013-02-22 15:05:00,
2013-02-23 01:10:00,72.9,72.0,29.83,SE,135,4.6,4.6,97,0.00,CLR,,0.14,0.0,WeatherDisplay:10.37,2013-02-22 15:10:00,
2013-02-23 01:15:00,72.7,71.5,29.82,SE,135,5.8,5.8,96,0.00,CLR,,0.14,0.0,WeatherDisplay:10.37,2013-02-22 15:15:00,
2013-02-23 01:20:00,72.5,71.3,29.82,SE,135,5.8,5.8,96,0.00,CLR,,0.14,0.0,WeatherDisplay:10.37,2013-02-22 15:20:00,
2013-02-23 01:25:00,72.5,71.3,29.82,South,180,3.5,3.5,96,0.00,CLR,,0.14,0.0,WeatherDisplay:10.37,2013-02-22 15:25:00,
2013-02-23 01:30:00,72.5,71.0,29.82,SE,135,3.5,3.5,95,0.00,CLR,,0.14,0.0,WeatherDisplay:10.37,2013-02-22 15:30:00,
2013-02-23 01:35:00,72.5,71.3,29.83,SE,135,3.1,3.1,96,0.00,CLR,,0.14,0.0,WeatherDisplay:10.37,2013-02-22 15:35:00,
2013-02-23 01:40:00,72.5,71.3,29.83,SE,135,3.5,3.5,96,0.00,CLR,,0.14,0.0,WeatherDisplay:10.37,2013-02-22 15:40:00,
2013-02-23 01:45:00,72.5,71.3,29.82,South,180,2.3,2.3,96,0.00,CLR,,0.14,0.0,WeatherDisplay:10.37,2013-02-22 15:45:00,
2013-02-23 01:50:00,72.3,71.1,29.83,South,180,3.5,0.0,96,0.00,CLR,,0.14,0.0,WeatherDisplay:10.37,2013-02-22 15:50:00,
2013-02-23 01:55:00,72.1,70.9,29.82,SE,135,3.5,3.5,96,0.00,CLR,,0.14,0.0,WeatherDisplay:10.37,2013-02-22 15:55:00,
2013-02-23 02:00:00,72.1,70.9,29.82,SE,135,2.3,0.0,96,0.00,CLR,,0.14,0.0,WeatherDisplay:10.37,2013-02-22 16:00:00,
2013-02-23 02:05:00,72.0,70.8,29.81,NE,45,1.1,1.1,96,0.00,CLR,,0.14,0.0,WeatherDisplay:10.37,2013-02-22 16:05:00,
2013-02-23 02:10:00,72.0,71.1,29.81,SE,135,3.5,3.5,97,0.00,CLR,,0.14,0.0,WeatherDisplay:10.37,2013-02-22 16:10:00,
2013-02-23 02:15:00,72.0,70.8,29.80,NE,45,2.3,2.3,96,0.00,CLR,,0.14,0.0,WeatherDisplay:10.37,2013-02-22 16:15:00,
2013-02-23 02:20:00,71.8,70.6,29.80,NE,45,3.5,3.5,96,0.00,CLR,,0.14,0.0,WeatherDisplay:10.37,2013-02-22 16:20:00,
2013-02-23 02:25:00,71.6,70.4,29.80,SW,225,1.1,1.6,96,0.00,CLR,,0.14,0.0,WeatherDisplay:10.37,2013-02-22 16:25:00,
2013-02-23 02:30:00,71.2,70.3,29.80,SW,225,1.1,1.1,97,0.00,CLR,,0.14,0.0,WeatherDisplay:10.37,2013-02-22 16:30:00,
2013-02-23 02:35:00,71.1,70.5,29.80,South,180,2.3,0.0,98,0.00,CLR,,0.14,0.0,WeatherDisplay:10.37,2013-02-22 16:35:00,
2013-02-23 02:40:00,71.2,70.6,29.79,SE,135,1.1,0.0,98,0.00,CLR,,0.14,0.0,WeatherDisplay:10.37,2013-02-22 16:40:00,
2013-02-23 02:45:00,71.2,70.6,29.79,NE,45,0.0,0.0,98,0.00,CLR,,0.14,0.0,WeatherDisplay:10.37,2013-02-22 16:45:00,
2013-02-23 02:50:00,71.1,70.5,29.79,NW,315,0.0,0.0,98,0.00,CLR,,0.14,0.0,WeatherDisplay:10.37,2013-02-22 16:50:00,
2013-02-23 02:55:00,70.7,70.1,29.79,West,270,0.0,0.0,98,0.00,CLR,,0.14,0.0,WeatherDisplay:10.37,2013-02-22 16:55:00,
2013-02-23 03:00:00,70.7,70.1,29.80,SW,225,0.0,0.0,98,0.00,CLR,,0.14,0.0,WeatherDisplay:10.37,2013-02-22 17:00:00,
2013-02-23 03:05:00,70.5,69.9,29.80,West,270,0.0,0.0,98,0.00,CLR,,0.14,0.0,WeatherDisplay:10.37,2013-02-22 17:05:00,
2013-02-23 03:10:00,70.5,69.9,29.80,SW,225,0.0,0.0,98,0.00,CLR,,0.14,0.0,WeatherDisplay:10.37,2013-02-22 17:10:00,
2013-02-23 03:15:00,70.5,69.9,29.80,South,180,0.0,0.0,98,0.00,CLR,,0.14,0.0,WeatherDisplay:10.37,2013-02-22 17:15:00,
2013-02-23 03:20:00,70.5,69.9,29.80,South,180,1.1,1.6,98,0.00,CLR,,0.14,0.0,WeatherDisplay:10.37,2013-02-22 17:20:00,
2013-02-23 03:25:00,70.9,70.3,29.80,South,180,4.6,4.6,98,0.00,CLR,,0.14,0.0,WeatherDisplay:10.37,2013-02-22 17:25:00,
2013-02-23 03:30:00,70.9,70.3,29.80,South,180,4.6,4.6,98,0.00,CLR,,0.14,0.0,WeatherDisplay:10.37,2013-02-22 17:30:00,
2013-02-23 03:35:00,70.9,70.3,29.80,South,180,5.8,5.8,98,0.00,CLR,,0.14,0.0,WeatherDisplay:10.37,2013-02-22 17:35:00,
2013-02-23 03:40:00,70.9,70.3,29.80,South,180,3.5,3.5,98,0.00,CLR,,0.14,0.0,WeatherDisplay:10.37,2013-02-22 17:40:00,
2013-02-23 03:46:00,71.1,70.5,29.81,SE,135,5.8,5.8,98,0.00,CLR,,0.14,0.0,WeatherDisplay:10.37,2013-02-22 17:46:00,
2013-02-23 03:51:00,71.2,70.6,29.80,South,180,4.6,4.6,98,0.00,CLR,,0.14,0.0,WeatherDisplay:10.37,2013-02-22 17:51:00,
2013-02-23 03:56:00,71.2,70.6,29.81,South,180,3.5,3.5,98,0.00,CLR,,0.14,0.0,WeatherDisplay:10.37,2013-02-22 17:56:00,
2013-02-23 04:01:00,71.2,70.6,29.80,SW,225,2.3,0.0,98,0.00,CLR,,0.14,0.0,WeatherDisplay:10.37,2013-02-22 18:01:00,
2013-02-23 04:06:00,71.1,70.5,29.81,South,180,1.1,1.1,98,0.00,CLR,,0.14,0.0,WeatherDisplay:10.37,2013-02-22 18:06:00,
2013-02-23 04:11:00,71.2,70.6,29.81,SE,135,2.3,2.3,98,0.00,CLR,,0.14,0.0,WeatherDisplay:10.37,2013-02-22 18:11:00,
2013-02-23 04:16:00,71.2,70.6,29.81,SE,135,1.1,1.1,98,0.00,CLR,,0.14,0.0,WeatherDisplay:10.37,2013-02-22 18:16:00,
2013-02-23 04:21:00,71.2,70.6,29.81,West,270,1.1,0.0,98,0.00,CLR,,0.14,0.0,WeatherDisplay:10.37,2013-02-22 18:21:00,
2013-02-23 04:26:00,71.1,70.5,29.81,South,180,1.1,0.0,98,0.00,CLR,,0.14,0.0,WeatherDisplay:10.37,2013-02-22 18:26:00,
2013-02-23 04:31:00,71.2,70.6,29.81,North,0,1.1,1.1,98,0.00,CLR,,0.14,0.0,WeatherDisplay:10.37,2013-02-22 18:31:00,
2013-02-23 04:36:00,71.2,70.6,29.81,North,0,3.5,3.5,98,0.00,CLR,,0.14,0.0,WeatherDisplay:10.37,2013-02-22 18:36:00,
2013-02-23 04:41:00,71.1,70.5,29.81,North,0,3.5,3.5,98,0.00,CLR,,0.14,0.0,WeatherDisplay:10.37,2013-02-22 18:41:00,
2013-02-23 04:46:00,71.1,70.5,29.81,North,0,3.5,3.5,98,0.00,CLR,,0.14,0.0,WeatherDisplay:10.37,2013-02-22 18:46:00,
2013-02-23 04:51:00,71.2,70.6,29.80,North,0,3.5,3.5,98,0.00,CLR,,0.14,0.0,WeatherDisplay:10.37,2013-02-22 18:51:00,
2013-02-23 04:56:00,71.1,70.5,29.80,NE,45,3.5,3.5,98,0.00,CLR,,0.14,0.0,WeatherDisplay:10.37,2013-02-22 18:56:00,
2013-02-23 05:01:00,71.1,70.5,29.81,North,0,3.5,3.5,98,0.00,CLR,,0.14,0.0,WeatherDisplay:10.37,2013-02-22 19:01:00,
2013-02-23 05:06:00,70.9,70.3,29.81,North,0,1.1,0.0,98,0.00,CLR,,0.14,0.0,WeatherDisplay:10.37,2013-02-22 19:06:00,
2013-02-23 05:11:00,71.1,70.5,29.80,South,180,5.8,5.8,98,0.00,CLR,,0.14,0.0,WeatherDisplay:10.37,2013-02-22 19:11:00,
2013-02-23 05:16:00,71.1,70.5,29.81,South,180,4.6,4.6,98,0.00,CLR,,0.14,0.0,WeatherDisplay:10.37,2013-02-22 19:16:00,
2013-02-23 05:21:00,71.1,70.5,29.82,South,180,5.8,5.8,98,0.00,CLR,,0.14,0.0,WeatherDisplay:10.37,2013-02-22 19:21:00,
2013-02-23 05:26:00,71.2,70.6,29.81,SE,135,5.8,5.8,98,0.00,CLR,,0.14,0.0,WeatherDisplay:10.37,2013-02-22 19:26:00,
2013-02-23 05:31:00,71.6,70.7,29.81,SE,135,3.5,3.5,97,0.00,CLR,,0.14,0.0,WeatherDisplay:10.37,2013-02-22 19:31:00,
2013-02-23 05:36:00,71.6,70.7,29.81,North,0,1.1,0.0,97,0.00,CLR,,0.14,0.0,WeatherDisplay:10.37,2013-02-22 19:36:00,
2013-02-23 05:41:00,71.6,70.7,29.81,North,0,0.0,0.0,97,0.00,CLR,,0.14,0.0,WeatherDisplay:10.37,2013-02-22 19:41:00,
2013-02-23 05:46:00,71.6,70.7,29.81,SE,135,2.3,2.3,97,0.00,CLR,,0.14,0.0,WeatherDisplay:10.37,2013-02-22 19:46:00,
2013-02-23 05:51:00,71.8,70.9,29.82,West,270,2.3,2.3,97,0.00,CLR,,0.14,0.0,WeatherDisplay:10.37,2013-02-22 19:51:00,
2013-02-23 05:56:00,71.6,70.7,29.83,SW,225,2.3,2.3,97,0.00,CLR,,0.14,0.0,WeatherDisplay:10.37,2013-02-22 19:56:00,
2013-02-23 06:01:00,71.2,70.6,29.83,SE,135,1.1,0.0,98,0.00,CLR,,0.14,0.0,WeatherDisplay:10.37,2013-02-22 20:01:00,
2013-02-23 06:06:00,71.6,70.7,29.83,East,90,3.5,3.5,97,0.00,CLR,,0.14,0.0,WeatherDisplay:10.37,2013-02-22 20:06:00,
2013-02-23 06:11:00,71.8,70.9,29.84,SE,135,3.5,3.5,97,0.00,CLR,,0.14,0.0,WeatherDisplay:10.37,2013-02-22 20:11:00,
2013-02-23 06:16:00,71.8,70.9,29.84,West,270,1.1,1.1,97,0.00,CLR,,0.14,0.0,WeatherDisplay:10.37,2013-02-22 20:16:00,
2013-02-23 06:21:00,71.8,70.9,29.84,South,180,3.5,3.5,97,0.00,CLR,,0.14,0.0,WeatherDisplay:10.37,2013-02-22 20:21:00,
2013-02-23 06:26:00,71.8,70.9,29.83,SE,135,3.5,3.5,97,0.00,CLR,,0.14,0.0,WeatherDisplay:10.37,2013-02-22 20:26:00,
2013-02-23 06:31:00,72.0,71.1,29.84,North,0,1.1,0.0,97,0.00,CLR,,0.14,0.0,WeatherDisplay:10.37,2013-02-22 20:31:00,
2013-02-23 06:36:00,72.0,71.1,29.84,North,0,1.1,0.0,97,0.00,CLR,,0.14,2.7,WeatherDisplay:10.37,2013-02-22 20:36:00,
2013-02-23 06:41:00,72.1,71.2,29.85,SE,135,1.1,1.1,97,0.00,CLR,,0.14,6.3,WeatherDisplay:10.37,2013-02-22 20:41:00,
2013-02-23 06:46:00,72.3,71.4,29.85,South,180,2.3,2.3,97,0.00,CLR,,0.14,5.5,WeatherDisplay:10.37,2013-02-22 20:46:00,
2013-02-23 06:51:00,72.3,71.4,29.85,South,180,1.1,0.0,97,0.00,CLR,,0.14,11.5,WeatherDisplay:10.37,2013-02-22 20:51:00,
2013-02-23 06:56:00,72.3,71.4,29.85,North,0,1.1,1.1,97,0.00,CLR,,0.14,19.3,WeatherDisplay:10.37,2013-02-22 20:56:00,
2013-02-23 07:01:00,72.5,71.6,29.85,NW,315,0.0,0.0,97,0.00,BKN,,0.14,27.1,WeatherDisplay:10.37,2013-02-22 21:01:00,
2013-02-23 07:06:00,72.5,71.6,29.87,SW,225,0.0,0.0,97,0.00,CLR,,0.14,19.6,WeatherDisplay:10.37,2013-02-22 21:06:00,
2013-02-23 07:11:00,72.7,71.8,29.87,South,180,0.0,0.0,97,0.00,CLR,,0.14,18.4,WeatherDisplay:10.37,2013-02-22 21:11:00,
2013-02-23 07:16:00,72.7,71.8,29.87,South,180,4.5,4.5,97,0.00,BKN,,0.14,28.5,WeatherDisplay:10.37,2013-02-22 21:16:00,
2013-02-23 07:21:00,72.9,72.0,29.87,SSE,158,4.6,4.6,97,0.00,BKN,,0.14,28.5,WeatherDisplay:10.37,2013-02-22 21:21:00,
2013-02-23 07:26:00,73.0,72.1,29.87,SE,135,5.8,5.8,97,0.00,BKN,,0.14,25.2,WeatherDisplay:10.37,2013-02-22 21:26:00,
2013-02-23 07:31:00,73.0,72.1,29.87,SE,135,3.5,3.5,97,0.00,BKN,,0.14,33.6,WeatherDisplay:10.37,2013-02-22 21:31:00,
2013-02-23 07:36:00,73.2,72.3,29.87,SE,135,3.5,3.5,97,0.00,BKN,,0.14,59.6,WeatherDisplay:10.37,2013-02-22 21:36:00,
2013-02-23 07:41:00,73.4,72.8,29.88,South,180,3.5,3.5,98,0.00,BKN,,0.14,72.0,WeatherDisplay:10.37,2013-02-22 21:41:00,
2013-02-23 07:46:00,73.6,72.7,29.88,South,180,4.6,4.6,97,0.00,BKN,,0.14,100.6,WeatherDisplay:10.37,2013-02-22 21:46:00,
2013-02-23 07:51:00,73.8,72.9,29.88,South,180,6.9,6.9,97,0.00,SCT,,0.14,109.8,WeatherDisplay:10.37,2013-02-22 21:51:00,
2013-02-23 07:56:00,74.3,73.4,29.89,SE,135,3.5,3.5,97,0.00,SCT,,0.14,89.7,WeatherDisplay:10.37,2013-02-22 21:56:00,
2013-02-23 08:01:00,74.3,73.1,29.90,South,180,5.8,5.8,96,0.00,BKN,,0.14,70.8,WeatherDisplay:10.37,2013-02-22 22:01:00,
2013-02-23 08:06:00,74.5,73.0,29.90,South,180,3.5,3.5,95,0.00,CLR,,0.14,127.5,WeatherDisplay:10.37,2013-02-22 22:06:00,
2013-02-23 08:11:00,74.8,73.3,29.89,South,180,3.5,3.5,95,0.00,CLR,,0.14,179.5,WeatherDisplay:10.37,2013-02-22 22:11:00,
2013-02-23 08:16:00,75.4,73.2,29.89,South,180,2.3,2.3,93,0.00,CLR,,0.14,161.6,WeatherDisplay:10.37,2013-02-22 22:16:00,
2013-02-23 08:21:00,75.9,73.4,29.89,SE,135,2.3,2.3,92,0.00,CLR,,0.14,158.9,WeatherDisplay:10.37,2013-02-22 22:21:00,
2013-02-23 08:26:00,76.3,73.5,29.89,ENE,68,3.5,3.5,91,0.00,CLR,,0.14,74.0,WeatherDisplay:10.37,2013-02-22 22:26:00,
2013-02-23 08:31:00,76.8,74.0,29.88,NE,45,0.0,0.0,91,0.00,CLR,,0.14,235.8,WeatherDisplay:10.37,2013-02-22 22:31:00,
2013-02-23 08:36:00,77.4,73.5,29.89,SW,225,0.0,0.0,88,0.00,CLR,,0.14,253.9,WeatherDisplay:10.37,2013-02-22 22:36:00,
2013-02-23 08:41:00,78.3,74.1,29.90,NE,45,0.0,0.0,87,0.00,CLR,,0.14,265.7,WeatherDisplay:10.37,2013-02-22 22:41:00,
2013-02-23 08:46:00,78.3,73.7,29.90,NW,315,1.1,1.1,86,0.00,CLR,,0.14,324.4,WeatherDisplay:10.37,2013-02-22 22:46:00,
2013-02-23 08:51:00,79.2,74.3,29.90,NE,45,2.3,2.3,85,0.00,OVC,,0.14,314.7,WeatherDisplay:10.37,2013-02-22 22:51:00,
2013-02-23 08:56:00,79.3,74.1,29.90,NE,45,2.3,2.3,84,0.00,OVC,,0.14,291.7,WeatherDisplay:10.37,2013-02-22 22:56:00,
2013-02-23 09:01:00,79.5,73.9,29.90,North,0,2.3,2.3,83,0.00,RA,,0.00,259.1,WeatherDisplay:10.37,2013-02-22 23:01:00,
2013-02-23 09:06:00,79.3,73.7,29.89,North,0,3.5,3.5,83,0.00,RA,,0.00,269.3,WeatherDisplay:10.37,2013-02-22 23:06:00,
2013-02-23 09:11:00,79.0,73.7,29.90,North,0,5.8,5.8,84,0.00,OVC,,0.00,260.8,WeatherDisplay:10.37,2013-02-22 23:11:00,
2013-02-23 09:16:00,78.6,74.1,29.90,North,0,8.1,8.1,86,0.00,OVC,,0.00,251.1,WeatherDisplay:10.37,2013-02-22 23:16:00,
2013-02-23 09:21:00,78.4,74.2,29.89,NE,45,8.1,8.1,87,0.00,OVC,,0.00,222.7,WeatherDisplay:10.37,2013-02-22 23:21:00,
2013-02-23 09:26:00,78.3,74.1,29.89,East,90,10.4,10.4,87,0.00,OVC,,0.00,277.5,WeatherDisplay:10.37,2013-02-22 23:26:00,
2013-02-23 09:31:00,78.3,74.1,29.90,North,0,10.4,10.4,87,0.00,OVC,,0.00,290.7,WeatherDisplay:10.37,2013-02-22 23:31:00,
2013-02-23 09:36:00,78.3,74.1,29.90,North,0,10.4,10.4,87,0.00,OVC,,0.00,310.9,WeatherDisplay:10.37,2013-02-22 23:36:00,
2013-02-23 09:41:00,78.1,73.9,29.90,NE,45,6.9,6.9,87,0.00,OVC,,0.00,311.1,WeatherDisplay:10.37,2013-02-22 23:41:00,
2013-02-23 09:47:00,78.3,74.1,29.90,North,0,8.1,8.1,87,0.00,OVC,,0.00,286.1,WeatherDisplay:10.37,2013-02-22 23:47:00,
2013-02-23 09:52:00,78.3,73.7,29.91,NE,45,3.5,3.5,86,0.00,OVC,,0.00,234.3,WeatherDisplay:10.37,2013-02-22 23:52:00,
2013-02-23 09:57:00,78.4,73.9,29.92,North,0,5.8,5.8,86,0.00,OVC,,0.00,186.5,WeatherDisplay:10.37,2013-02-22 23:57:00,
2013-02-23 10:02:00,78.3,73.0,29.91,North,0,5.8,5.8,84,0.00,OVC,,0.00,235.8,WeatherDisplay:10.37,2013-02-23 00:02:00,
2013-02-23 10:07:00,78.1,72.5,29.91,NE,45,6.9,6.9,83,0.00,OVC,,0.00,300.0,WeatherDisplay:10.37,2013-02-23 00:07:00,
2013-02-23 10:12:00,78.4,72.8,29.92,NE,45,5.8,5.8,83,0.00,OVC,,0.00,321.3,WeatherDisplay:10.37,2013-02-23 00:12:00,
2013-02-23 10:17:00,78.6,71.9,29.92,North,0,8.1,8.1,80,0.00,OVC,,0.00,354.7,WeatherDisplay:10.37,2013-02-23 00:17:00,
2013-02-23 10:22:00,78.4,71.4,29.93,NE,45,8.1,8.1,79,0.00,OVC,,0.00,253.9,WeatherDisplay:10.37,2013-02-23 00:22:00,
2013-02-23 10:27:00,78.4,71.8,29.93,NE,45,9.2,9.2,80,0.00,OVC,,0.00,216.2,WeatherDisplay:10.37,2013-02-23 00:27:00,
2013-02-23 10:32:00,78.1,71.0,29.93,North,0,8.1,8.1,79,0.00,OVC,,0.00,194.6,WeatherDisplay:10.37,2013-02-23 00:32:00,
2013-02-23 10:37:00,78.1,71.4,29.92,North,0,5.8,5.8,80,0.00,OVC,,0.00,152.6,WeatherDisplay:10.37,2013-02-23 00:37:00,
2013-02-23 10:42:00,78.1,72.1,29.92,North,0,5.8,5.8,82,0.00,OVC,,0.00,208.0,WeatherDisplay:10.37,2013-02-23 00:42:00,
2013-02-23 10:47:00,78.1,72.1,29.91,North,0,5.8,5.8,82,0.00,OVC,,0.00,326.1,WeatherDisplay:10.37,2013-02-23 00:47:00,
2013-02-23 10:52:00,78.4,72.5,29.91,NE,45,8.1,8.1,82,0.00,OVC,,0.00,388.8,WeatherDisplay:10.37,2013-02-23 00:52:00,
2013-02-23 10:57:00,78.4,71.8,29.91,NE,45,13.8,13.8,80,0.00,OVC,,0.00,479.7,WeatherDisplay:10.37,2013-02-23 00:57:00,
2013-02-23 11:02:00,79.2,71.7,29.91,NNE,22,8.1,8.1,78,0.00,OVC,,0.00,486.6,WeatherDisplay:10.37,2013-02-23 01:02:00,
2013-02-23 11:07:00,79.5,70.9,29.90,North,0,12.7,12.7,75,0.00,OVC,,0.00,475.7,WeatherDisplay:10.37,2013-02-23 01:07:00,
2013-02-23 11:12:00,79.3,70.7,29.90,East,90,12.7,12.7,75,0.00,OVC,,0.00,504.9,WeatherDisplay:10.37,2013-02-23 01:12:00,
2013-02-23 11:17:00,79.2,70.9,29.90,NE,45,13.8,13.8,76,0.00,OVC,,0.00,403.0,WeatherDisplay:10.37,2013-02-23 01:17:00,
2013-02-23 11:22:00,78.4,71.0,29.89,NE,45,12.7,12.7,78,0.00,OVC,,0.00,487.0,WeatherDisplay:10.37,2013-02-23 01:22:00,
2013-02-23 11:27:00,78.4,71.4,29.89,NE,45,12.7,12.7,79,0.00,OVC,,0.00,514.5,WeatherDisplay:10.37,2013-02-23 01:27:00,
2013-02-23 11:32:00,78.3,71.2,29.88,North,0,10.4,10.4,79,0.00,OVC,,0.00,451.8,WeatherDisplay:10.37,2013-02-23 01:32:00,
2013-02-23 11:37:00,78.4,71.8,29.88,North,0,9.2,9.2,80,0.00,OVC,,0.00,420.6,WeatherDisplay:10.37,2013-02-23 01:37:00,
2013-02-23 11:42:00,78.4,71.8,29.88,NW,315,9.2,9.2,80,0.00,OVC,,0.00,793.1,WeatherDisplay:10.37,2013-02-23 01:42:00,
2013-02-23 11:47:00,78.8,71.7,29.88,North,0,10.4,10.4,79,0.00,OVC,,0.00,936.7,WeatherDisplay:10.37,2013-02-23 01:47:00,
2013-02-23 11:52:00,80.6,72.3,29.88,NE,45,8.1,8.1,76,0.00,OVC,,0.00,1742.3,WeatherDisplay:10.37,2013-02-23 01:52:00,
2013-02-23 11:57:00,81.9,72.8,29.87,NW,315,8.1,8.1,74,0.00,OVC,,0.00,1015.6,WeatherDisplay:10.37,2013-02-23 01:57:00,
2013-02-23 12:02:00,82.2,72.7,29.87,NE,45,8.1,8.1,73,0.00,OVC,,0.00,1018.6,WeatherDisplay:10.37,2013-02-23 02:02:00,
2013-02-23 12:07:00,82.8,72.4,29.87,NE,45,9.2,9.2,71,0.00,OVC,,0.00,1582.0,WeatherDisplay:10.37,2013-02-23 02:07:00,
2013-02-23 12:12:00,84.0,73.2,29.86,North,0,2.3,4.5,70,0.00,OVC,,0.00,1790.8,WeatherDisplay:10.37,2013-02-23 02:12:00,
2013-02-23 12:17:00,85.6,73.4,29.86,NW,315,8.1,8.1,67,0.00,OVC,,0.00,923.6,WeatherDisplay:10.37,2013-02-23 02:17:00,
2013-02-23 12:22:00,85.1,72.5,29.85,NE,45,9.2,9.2,66,0.00,OVC,,0.00,821.3,WeatherDisplay:10.37,2013-02-23 02:22:00,
2013-02-23 12:27:00,84.4,72.2,29.85,NE,45,8.1,8.1,67,0.00,OVC,,0.00,737.3,WeatherDisplay:10.37,2013-02-23 02:27:00,
2013-02-23 12:32:00,85.3,73.1,29.85,North,0,4.6,4.6,67,0.00,OVC,,0.00,1087.9,WeatherDisplay:10.37,2013-02-23 02:32:00,
2013-02-23 12:37:00,86.4,72.7,29.85,North,0,9.2,9.2,64,0.00,OVC,,0.00,1089.7,WeatherDisplay:10.37,2013-02-23 02:37:00,
2013-02-23 12:42:00,85.1,73.3,29.83,NW,315,5.8,5.8,68,0.00,OVC,,0.00,1191.1,WeatherDisplay:10.37,2013-02-23 02:42:00,
2013-02-23 12:47:00,86.7,73.5,29.83,NW,315,4.6,5.4,65,0.00,OVC,,0.00,1703.8,WeatherDisplay:10.37,2013-02-23 02:47:00,
2013-02-23 12:52:00,87.6,73.0,29.83,NW,315,6.9,6.9,62,0.00,OVC,,0.00,947.2,WeatherDisplay:10.37,2013-02-23 02:52:00,
2013-02-23 12:57:00,87.4,72.3,29.83,North,0,8.1,8.1,61,0.00,OVC,,0.00,598.0,WeatherDisplay:10.37,2013-02-23 02:57:00,
2013-02-23 13:02:00,86.0,72.4,29.82,NNE,22,5.8,5.8,64,0.00,OVC,,0.00,865.3,WeatherDisplay:10.37,2013-02-23 03:02:00,
2013-02-23 13:07:00,86.2,72.6,29.83,NW,315,2.3,2.3,64,0.00,OVC,,0.00,563.5,WeatherDisplay:10.37,2013-02-23 03:07:00,
2013-02-23 13:12:00,85.6,72.5,29.83,North,0,6.9,6.9,65,0.00,OVC,,0.00,679.5,WeatherDisplay:10.37,2013-02-23 03:12:00,
2013-02-23 13:17:00,85.5,72.3,29.83,NW,315,5.8,5.8,65,0.00,OVC,,0.00,891.6,WeatherDisplay:10.37,2013-02-23 03:17:00,
2013-02-23 13:22:00,86.4,72.3,29.83,NW,315,3.5,0.0,63,0.00,OVC,,0.00,659.8,WeatherDisplay:10.37,2013-02-23 03:22:00,
2013-02-23 13:27:00,88.0,72.8,29.82,NW,315,1.1,3.8,61,0.00,OVC,,0.00,522.4,WeatherDisplay:10.37,2013-02-23 03:27:00,
2013-02-23 13:32:00,86.9,72.8,29.82,North,0,3.5,0.0,63,0.00,OVC,,0.00,680.6,WeatherDisplay:10.37,2013-02-23 03:32:00,
2013-02-23 13:37:00,86.9,72.3,29.82,NE,45,1.1,0.0,62,0.00,OVC,,0.00,383.6,WeatherDisplay:10.37,2013-02-23 03:37:00,
2013-02-23 13:42:00,87.6,73.0,29.82,North,0,0.0,2.2,62,0.00,OVC,,0.00,531.3,WeatherDisplay:10.37,2013-02-23 03:42:00,
2013-02-23 13:47:00,87.4,72.8,29.82,NW,315,3.5,3.5,62,0.00,OVC,,0.00,518.3,WeatherDisplay:10.37,2013-02-23 03:47:00,
2013-02-23 13:52:00,86.4,71.8,29.82,North,0,6.9,6.9,62,0.00,OVC,,0.00,595.6,WeatherDisplay:10.37,2013-02-23 03:52:00,
2013-02-23 13:57:00,85.6,72.1,29.81,NW,315,5.8,5.8,64,0.00,OVC,,0.00,948.9,WeatherDisplay:10.37,2013-02-23 03:57:00,
2013-02-23 14:02:00,86.2,72.1,29.81,NW,315,5.8,5.8,63,0.00,OVC,,0.00,977.5,WeatherDisplay:10.37,2013-02-23 04:02:00,
2013-02-23 14:07:00,86.2,72.1,29.80,SE,135,3.5,3.5,63,0.00,OVC,,0.00,750.2,WeatherDisplay:10.37,2013-02-23 04:07:00,
2013-02-23 14:12:00,88.3,72.2,29.79,North,0,3.5,3.5,59,0.00,OVC,,0.00,1721.7,WeatherDisplay:10.37,2013-02-23 04:12:00,
2013-02-23 14:17:00,89.2,71.5,29.80,WNW,292,3.5,3.5,56,0.00,OVC,,0.00,650.2,WeatherDisplay:10.37,2013-02-23 04:17:00,
2013-02-23 14:22:00,90.1,72.8,29.80,South,180,4.6,4.6,57,0.00,OVC,,0.00,1126.6,WeatherDisplay:10.37,2013-02-23 04:22:00,
2013-02-23 14:27:00,88.0,72.4,29.79,South,180,5.8,5.8,60,0.00,OVC,,0.00,550.9,WeatherDisplay:10.37,2013-02-23 04:27:00,
2013-02-23 14:32:00,86.2,72.1,29.80,SSW,202,6.9,6.9,63,0.00,OVC,,0.00,683.2,WeatherDisplay:10.37,2013-02-23 04:32:00,
2013-02-23 14:37:00,86.0,71.9,29.80,SW,225,5.8,5.8,63,0.00,OVC,,0.00,682.6,WeatherDisplay:10.37,2013-02-23 04:37:00,
2013-02-23 14:42:00,86.5,72.4,29.80,South,180,3.5,3.5,63,0.00,OVC,,0.00,606.0,WeatherDisplay:10.37,2013-02-23 04:42:00,
2013-02-23 14:47:00,86.0,71.9,29.80,SW,225,6.9,6.9,63,0.00,OVC,,0.00,560.5,WeatherDisplay:10.37,2013-02-23 04:47:00,
2013-02-23 14:53:00,86.0,72.9,29.79,South,180,3.5,3.5,65,0.00,OVC,,0.00,492.6,WeatherDisplay:10.37,2013-02-23 04:53:00,
2013-02-23 14:58:00,86.0,72.4,29.79,South,180,5.8,5.8,64,0.00,OVC,,0.00,623.5,WeatherDisplay:10.37,2013-02-23 04:58:00,
2013-02-23 15:00:00,86.0,72.4,29.79,SSW,197,2.0,7.0,64,0.00,OVC,,0.00,604.0,WeatherDisplay:10.37,2013-02-23 05:00:00,
2013-02-23 15:05:00,86.0,71.9,29.79,South,180,8.1,8.1,63,0.00,OVC,,0.00,568.3,WeatherDisplay:10.37,2013-02-23 05:05:00,
2013-02-23 15:10:00,84.9,71.4,29.78,SE,135,8.1,8.1,64,0.00,OVC,,0.00,460.8,WeatherDisplay:10.37,2013-02-23 05:10:00,
2013-02-23 15:15:00,85.5,71.9,29.79,SE,135,8.1,8.1,64,0.00,OVC,,0.00,450.5,WeatherDisplay:10.37,2013-02-23 05:15:00,
2013-02-23 15:20:00,86.0,71.9,29.78,SE,135,3.5,3.5,63,0.00,OVC,,0.00,530.7,WeatherDisplay:10.37,2013-02-23 05:20:00,
2013-02-23 15:25:00,86.5,72.4,29.78,SE,135,5.8,5.8,63,0.00,OVC,,0.00,534.2,WeatherDisplay:10.37,2013-02-23 05:25:00,
2013-02-23 15:30:00,86.4,71.8,29.78,South,180,1.1,0.0,62,0.00,OVC,,0.00,527.5,WeatherDisplay:10.37,2013-02-23 05:30:00,
2013-02-23 15:35:00,87.4,71.8,29.78,South,180,6.9,6.9,60,0.00,OVC,,0.00,643.0,WeatherDisplay:10.37,2013-02-23 05:35:00,
2013-02-23 15:40:00,87.3,71.7,29.78,East,90,3.5,3.5,60,0.00,OVC,,0.00,894.0,WeatherDisplay:10.37,2013-02-23 05:40:00,
2013-02-23 15:45:00,89.4,72.2,29.78,SE,135,6.9,6.9,57,0.00,OVC,,0.00,706.1,WeatherDisplay:10.37,2013-02-23 05:45:00,
2013-02-23 15:50:00,88.0,71.3,29.78,SW,225,4.6,4.6,58,0.00,OVC,,0.00,378.7,WeatherDisplay:10.37,2013-02-23 05:50:00,
2013-02-23 15:55:00,87.8,71.2,29.78,South,180,4.6,4.6,58,0.00,OVC,,0.00,315.3,WeatherDisplay:10.37,2013-02-23 05:55:00,
2013-02-23 16:00:00,87.4,72.3,29.78,West,270,2.3,2.3,61,0.00,OVC,,0.00,321.2,WeatherDisplay:10.37,2013-02-23 06:00:00,
2013-02-23 16:05:00,87.6,71.5,29.78,West,270,2.3,2.3,59,0.00,OVC,,0.00,344.2,WeatherDisplay:10.37,2013-02-23 06:05:00,
2013-02-23 16:10:00,87.1,71.5,29.78,South,180,8.3,8.3,60,0.00,OVC,,0.00,434.5,WeatherDisplay:10.37,2013-02-23 06:10:00,
2013-02-23 16:15:00,86.4,70.3,29.78,SE,135,8.1,8.1,59,0.00,OVC,,0.00,396.6,WeatherDisplay:10.37,2013-02-23 06:15:00,
2013-02-23 16:20:00,85.8,71.8,29.78,SSE,158,15.0,15.0,63,0.00,OVC,,0.00,399.3,WeatherDisplay:10.37,2013-02-23 06:20:00,
2013-02-23 16:25:00,82.8,69.8,29.78,SE,135,16.1,16.1,65,0.00,OVC,,0.00,429.9,WeatherDisplay:10.37,2013-02-23 06:25:00,
2013-02-23 16:30:00,82.4,70.3,29.77,South,180,10.4,10.4,67,0.00,OVC,,0.00,274.1,WeatherDisplay:10.37,2013-02-23 06:30:00,
2013-02-23 16:35:00,82.6,70.5,29.77,SSW,202,8.1,8.1,67,0.00,OVC,,0.00,328.4,WeatherDisplay:10.37,2013-02-23 06:35:00,
2013-02-23 16:40:00,82.4,70.3,29.77,SE,135,11.5,11.5,67,0.00,OVC,,0.00,706.2,WeatherDisplay:10.37,2013-02-23 06:40:00,
2013-02-23 16:46:00,83.5,70.9,29.78,SE,135,5.8,6.0,66,0.00,OVC,,0.00,923.0,WeatherDisplay:10.37,2013-02-23 06:46:00,
2013-02-23 16:51:00,84.6,70.6,29.77,SE,135,6.9,6.9,63,0.00,OVC,,0.00,322.8,WeatherDisplay:10.37,2013-02-23 06:51:00,
2013-02-23 16:56:00,84.4,70.9,29.78,South,180,5.8,5.8,64,0.00,OVC,,0.00,317.9,WeatherDisplay:10.37,2013-02-23 06:56:00,
2013-02-23 17:01:00,83.7,70.2,29.77,SE,135,9.2,9.2,64,0.00,CLR,,0.00,249.2,WeatherDisplay:10.37,2013-02-23 07:01:00,
2013-02-23 17:06:00,84.0,70.5,29.77,East,90,4.6,4.6,64,0.00,CLR,,0.00,188.4,WeatherDisplay:10.37,2013-02-23 07:06:00,
2013-02-23 17:11:00,84.6,70.1,29.77,NE,45,3.5,3.5,62,0.00,CLR,,0.00,176.3,WeatherDisplay:10.37,2013-02-23 07:11:00,
2013-02-23 17:16:00,84.6,70.6,29.78,North,0,3.5,3.5,63,0.00,CLR,,0.00,191.1,WeatherDisplay:10.37,2013-02-23 07:16:00,
2013-02-23 17:21:00,84.2,70.7,29.78,North,0,8.1,8.1,64,0.00,CLR,,0.00,256.8,WeatherDisplay:10.37,2013-02-23 07:21:00,
2013-02-23 17:26:00,83.7,71.5,29.78,North,0,8.1,8.1,67,0.00,CLR,,0.00,245.5,WeatherDisplay:10.37,2013-02-23 07:26:00,
2013-02-23 17:31:00,83.5,71.4,29.78,North,0,10.4,10.4,67,0.00,CLR,,0.00,180.4,WeatherDisplay:10.37,2013-02-23 07:31:00,
2013-02-23 17:36:00,82.8,70.7,29.77,North,0,12.7,12.7,67,0.00,CLR,,0.00,161.9,WeatherDisplay:10.37,2013-02-23 07:36:00,
2013-02-23 17:41:00,82.0,71.3,29.77,NE,45,8.1,8.1,70,0.00,CLR,,0.00,73.3,WeatherDisplay:10.37,2013-02-23 07:41:00,
2013-02-23 17:46:00,81.7,71.4,29.77,North,0,8.1,8.1,71,0.00,CLR,,0.00,49.3,WeatherDisplay:10.37,2013-02-23 07:46:00,
2013-02-23 17:51:00,81.1,70.8,29.78,North,0,8.1,8.1,71,0.00,CLR,,0.00,43.5,WeatherDisplay:10.37,2013-02-23 07:51:00,
2013-02-23 17:56:00,81.0,71.5,29.78,North,0,6.9,6.9,73,0.00,CLR,,0.00,38.1,WeatherDisplay:10.37,2013-02-23 07:56:00,
2013-02-23 18:01:00,80.6,70.7,29.78,NE,45,10.4,10.4,72,0.00,CLR,,0.00,31.7,WeatherDisplay:10.37,2013-02-23 08:01:00,
2013-02-23 18:06:00,80.4,70.6,29.79,NE,45,10.4,10.4,72,0.00,CLR,,0.00,27.1,WeatherDisplay:10.37,2013-02-23 08:06:00,
2013-02-23 18:11:00,80.2,70.8,29.79,NE,45,10.4,10.4,73,0.00,CLR,,0.00,25.0,WeatherDisplay:10.37,2013-02-23 08:11:00,
2013-02-23 18:16:00,80.2,70.8,29.80,NE,45,10.4,10.4,73,0.00,CLR,,0.00,24.3,WeatherDisplay:10.37,2013-02-23 08:16:00,
2013-02-23 18:21:00,80.1,68.5,29.79,North,0,10.4,10.4,68,0.00,CLR,,0.00,25.6,WeatherDisplay:10.37,2013-02-23 08:21:00,
2013-02-23 18:26:00,79.7,68.6,29.79,NE,45,10.4,10.4,69,0.00,CLR,,0.00,21.7,WeatherDisplay:10.37,2013-02-23 08:26:00,
2013-02-23 18:31:00,79.5,68.5,29.79,North,0,6.9,6.9,69,0.00,CLR,,0.00,12.9,WeatherDisplay:10.37,2013-02-23 08:31:00,
2013-02-23 18:36:00,79.0,68.8,29.79,NE,45,6.9,6.9,71,0.00,CLR,,0.00,5.7,WeatherDisplay:10.37,2013-02-23 08:36:00,
2013-02-23 18:41:00,78.6,69.2,29.79,NE,45,10.4,10.4,73,0.00,CLR,,0.00,0.6,WeatherDisplay:10.37,2013-02-23 08:41:00,
2013-02-23 18:46:00,78.3,68.9,29.80,NE,45,10.4,10.4,73,0.00,CLR,,0.00,0.0,WeatherDisplay:10.37,2013-02-23 08:46:00,
2013-02-23 18:51:00,78.3,68.9,29.80,NE,45,8.1,8.1,73,0.00,CLR,,0.00,0.0,WeatherDisplay:10.37,2013-02-23 08:51:00,
2013-02-23 18:56:00,78.1,68.7,29.81,NE,45,10.4,10.4,73,0.00,CLR,,0.00,0.0,WeatherDisplay:10.37,2013-02-23 08:56:00,
2013-02-23 19:01:00,77.7,68.4,29.81,NE,45,8.1,8.1,73,0.00,CLR,,0.00,0.0,WeatherDisplay:10.37,2013-02-23 09:01:00,
2013-02-23 19:06:00,77.7,68.8,29.82,NE,45,8.1,8.1,74,0.00,CLR,,0.00,0.0,WeatherDisplay:10.37,2013-02-23 09:06:00,
2013-02-23 19:11:00,77.7,68.8,29.82,North,0,8.1,8.1,74,0.00,CLR,,0.00,0.0,WeatherDisplay:10.37,2013-02-23 09:11:00,
2013-02-23 19:16:00,77.5,68.6,29.82,North,0,5.8,5.8,74,0.00,CLR,,0.00,0.0,WeatherDisplay:10.37,2013-02-23 09:16:00,
2013-02-23 19:21:00,77.5,68.6,29.82,North,0,5.8,5.8,74,0.00,CLR,,0.00,0.0,WeatherDisplay:10.37,2013-02-23 09:21:00,
2013-02-23 19:26:00,77.4,68.8,29.82,NNE,22,9.2,9.2,75,0.00,CLR,,0.00,0.0,WeatherDisplay:10.37,2013-02-23 09:26:00,
2013-02-23 19:31:00,77.2,69.0,29.82,SW,225,6.9,6.9,76,0.00,CLR,,0.00,0.0,WeatherDisplay:10.37,2013-02-23 09:31:00,
2013-02-23 19:36:00,77.2,69.0,29.82,NE,45,6.9,6.9,76,0.00,CLR,,0.00,0.0,WeatherDisplay:10.37,2013-02-23 09:36:00,
2013-02-23 19:41:00,77.0,69.2,29.82,NE,45,8.1,8.1,77,0.00,CLR,,0.00,0.0,WeatherDisplay:10.37,2013-02-23 09:41:00,
2013-02-23 19:46:00,76.8,69.8,29.82,NE,45,10.4,10.4,79,0.00,CLR,,0.00,0.0,WeatherDisplay:10.37,2013-02-23 09:46:00,
2013-02-23 19:51:00,76.8,69.8,29.83,East,90,9.2,9.2,79,0.00,CLR,,0.00,0.0,WeatherDisplay:10.37,2013-02-23 09:51:00,
2013-02-23 19:56:00,76.8,70.2,29.83,ENE,68,8.1,8.1,80,0.00,CLR,,0.00,0.0,WeatherDisplay:10.37,2013-02-23 09:56:00,
2013-02-23 20:01:00,76.6,70.4,29.83,NE,45,9.2,9.2,81,0.00,CLR,,0.00,0.0,WeatherDisplay:10.37,2013-02-23 10:01:00,
2013-02-23 20:06:00,76.6,70.4,29.84,NE,45,4.6,4.6,81,0.00,CLR,,0.00,0.0,WeatherDisplay:10.37,2013-02-23 10:06:00,
2013-02-23 20:11:00,76.6,70.7,29.84,NE,45,3.5,3.5,82,0.00,CLR,,0.00,0.0,WeatherDisplay:10.37,2013-02-23 10:11:00,
2013-02-23 20:16:00,76.5,70.9,29.84,SW,225,5.8,5.8,83,0.00,CLR,,0.00,0.0,WeatherDisplay:10.37,2013-02-23 10:16:00,
2013-02-23 20:21:00,76.5,71.3,29.85,NE,45,3.5,3.5,84,0.00,CLR,,0.00,0.0,WeatherDisplay:10.37,2013-02-23 10:21:00,
2013-02-23 20:26:00,76.3,71.1,29.84,NE,45,3.5,3.5,84,0.00,CLR,,0.00,0.0,WeatherDisplay:10.37,2013-02-23 10:26:00,
2013-02-23 20:31:00,76.3,71.1,29.85,NE,45,5.8,5.8,84,0.00,CLR,,0.00,0.0,WeatherDisplay:10.37,2013-02-23 10:31:00,
2013-02-23 20:36:00,76.1,70.9,29.85,NE,45,4.6,4.6,84,0.00,CLR,,0.00,0.0,WeatherDisplay:10.37,2013-02-23 10:36:00,
2013-02-23 20:41:00,76.1,70.9,29.86,NE,45,3.5,3.5,84,0.00,CLR,,0.00,0.0,WeatherDisplay:10.37,2013-02-23 10:41:00,
2013-02-23 20:46:00,75.9,71.1,29.86,NE,45,1.1,0.0,85,0.00,CLR,,0.00,0.0,WeatherDisplay:10.37,2013-02-23 10:46:00,
2013-02-23 20:51:00,75.9,71.1,29.86,NE,45,1.1,1.1,85,0.00,CLR,,0.00,0.0,WeatherDisplay:10.37,2013-02-23 10:51:00,
2013-02-23 20:56:00,75.9,71.1,29.86,SE,135,2.3,0.0,85,0.00,CLR,,0.00,0.0,WeatherDisplay:10.37,2013-02-23 10:56:00,
2013-02-23 21:01:00,75.9,71.4,29.86,NE,45,2.3,2.3,86,0.00,CLR,,0.00,0.0,WeatherDisplay:10.37,2013-02-23 11:01:00,
2013-02-23 21:06:00,75.7,71.3,29.86,SE,135,2.3,2.3,86,0.00,CLR,,0.00,0.0,WeatherDisplay:10.37,2013-02-23 11:06:00,
2013-02-23 21:11:00,75.6,71.1,29.87,SE,135,1.1,0.0,86,0.00,CLR,,0.00,0.0,WeatherDisplay:10.37,2013-02-23 11:11:00,
2013-02-23 21:16:00,75.6,71.4,29.87,SE,135,1.1,0.0,87,0.00,CLR,,0.00,0.0,WeatherDisplay:10.37,2013-02-23 11:16:00,
2013-02-23 21:21:00,75.6,71.4,29.87,SE,135,1.1,0.0,87,0.00,CLR,,0.00,0.0,WeatherDisplay:10.37,2013-02-23 11:21:00,
2013-02-23 21:26:00,75.6,71.8,29.87,South,180,2.3,2.3,88,0.00,CLR,,0.00,0.0,WeatherDisplay:10.37,2013-02-23 11:26:00,
2013-02-23 21:31:00,75.2,71.4,29.87,South,180,3.5,3.5,88,0.00,CLR,,0.00,0.0,WeatherDisplay:10.37,2013-02-23 11:31:00,
2013-02-23 21:36:00,75.0,71.6,29.88,SE,135,3.5,3.5,89,0.00,CLR,,0.00,0.0,WeatherDisplay:10.37,2013-02-23 11:36:00,
2013-02-23 21:41:00,75.0,71.2,29.88,SE,135,3.5,3.5,88,0.00,CLR,,0.00,0.0,WeatherDisplay:10.37,2013-02-23 11:41:00,
2013-02-23 21:46:00,75.0,71.2,29.88,SE,135,2.3,2.3,88,0.00,CLR,,0.00,0.0,WeatherDisplay:10.37,2013-02-23 11:46:00,
2013-02-23 21:52:00,74.8,71.4,29.88,South,180,2.3,2.3,89,0.00,CLR,,0.00,0.0,WeatherDisplay:10.37,2013-02-23 11:52:00,
2013-02-23 21:57:00,74.5,71.4,29.89,South,180,1.1,1.1,90,0.00,CLR,,0.00,0.0,WeatherDisplay:10.37,2013-02-23 11:57:00,
2013-02-23 22:02:00,74.1,71.0,29.90,South,180,1.1,1.1,90,0.00,CLR,,0.00,0.0,WeatherDisplay:10.37,2013-02-23 12:02:00,
2013-02-23 22:07:00,74.1,70.7,29.89,SE,135,2.3,2.3,89,0.00,CLR,,0.00,0.0,WeatherDisplay:10.37,2013-02-23 12:07:00,
2013-02-23 22:12:00,74.1,71.3,29.89,East,90,3.5,3.5,91,0.00,CLR,,0.00,0.0,WeatherDisplay:10.37,2013-02-23 12:12:00,
2013-02-23 22:17:00,74.3,71.2,29.89,SE,135,4.6,4.6,90,0.00,CLR,,0.00,0.0,WeatherDisplay:10.37,2013-02-23 12:17:00,
2013-02-23 22:22:00,74.3,70.8,29.89,SE,135,4.6,4.6,89,0.00,CLR,,0.00,0.0,WeatherDisplay:10.37,2013-02-23 12:22:00,
2013-02-23 22:27:00,74.3,70.8,29.90,East,90,3.5,3.5,89,0.00,CLR,,0.00,0.0,WeatherDisplay:10.37,2013-02-23 12:27:00,
2013-02-23 22:32:00,74.3,70.8,29.90,SE,135,3.5,3.5,89,0.00,CLR,,0.00,0.0,WeatherDisplay:10.37,2013-02-23 12:32:00,
2013-02-23 22:37:00,74.1,70.7,29.90,SSE,158,3.5,3.5,89,0.00,CLR,,0.00,0.0,WeatherDisplay:10.37,2013-02-23 12:37:00,
2013-02-23 22:42:00,73.9,71.1,29.90,South,180,3.5,3.5,91,0.00,CLR,,0.00,0.0,WeatherDisplay:10.37,2013-02-23 12:42:00,
2013-02-23 22:47:00,73.8,71.3,29.91,West,270,1.1,0.0,92,0.00,CLR,,0.00,0.0,WeatherDisplay:10.37,2013-02-23 12:47:00,
2013-02-23 22:52:00,73.4,71.3,29.92,West,270,1.1,0.0,93,0.00,CLR,,0.00,0.0,WeatherDisplay:10.37,2013-02-23 12:52:00,
2013-02-23 22:57:00,73.0,70.6,29.91,SE,135,2.3,2.3,92,0.00,CLR,,0.00,0.0,WeatherDisplay:10.37,2013-02-23 12:57:00,
2013-02-23 23:02:00,73.4,71.6,29.91,SE,135,1.1,1.1,94,0.00,CLR,,0.00,0.0,WeatherDisplay:10.37,2013-02-23 13:02:00,
2013-02-23 23:07:00,73.4,71.9,29.91,SE,135,1.1,0.0,95,0.00,CLR,,0.00,0.0,WeatherDisplay:10.37,2013-02-23 13:07:00,
2013-02-23 23:12:00,73.6,72.4,29.91,South,180,1.1,0.0,96,0.00,CLR,,0.00,0.0,WeatherDisplay:10.37,2013-02-23 13:12:00,
2013-02-23 23:17:00,73.4,72.2,29.91,South,180,0.0,0.0,96,0.00,CLR,,0.00,0.0,WeatherDisplay:10.37,2013-02-23 13:17:00,
2013-02-23 23:22:00,73.0,71.5,29.91,South,180,3.5,3.5,95,0.00,CLR,,0.00,0.0,WeatherDisplay:10.37,2013-02-23 13:22:00,
2013-02-23 23:27:00,72.9,71.7,29.91,South,180,1.1,0.0,96,0.00,CLR,,0.00,0.0,WeatherDisplay:10.37,2013-02-23 13:27:00,
2013-02-23 23:32:00,72.7,71.5,29.91,South,180,2.3,2.3,96,0.00,CLR,,0.00,0.0,WeatherDisplay:10.37,2013-02-23 13:32:00,
2013-02-23 23:37:00,72.7,71.5,29.91,South,180,0.0,0.0,96,0.00,CLR,,0.00,0.0,WeatherDisplay:10.37,2013-02-23 13:37:00,
2013-02-23 23:42:00,72.7,71.8,29.91,South,180,0.0,0.0,97,0.00,CLR,,0.00,0.0,WeatherDisplay:10.37,2013-02-23 13:42:00,
2013-02-23 23:47:00,72.7,71.8,29.90,South,180,0.0,0.0,97,0.00,CLR,,0.00,0.0,WeatherDisplay:10.37,2013-02-23 13:47:00,
2013-02-23 23:52:00,72.5,71.6,29.91,South,180,2.2,0.0,97,0.00,CLR,,0.00,0.0,WeatherDisplay:10.37,2013-02-23 13:52:00,
2013-02-23 23:57:00,72.5,71.6,29.90,South,180,2.3,0.0,97,0.00,CLR,,0.00,0.0,WeatherDisplay:10.37,2013-02-23 13:57:00,